Regional Weather Roundup
Issued by NWS Charleston, SC

Current Version | Previous Version | Text Only | Print | Product List | Glossary Off
Versions: 1 2 3 4 5 6 7 8 9 10 11 12 13 14 15 16 17 18 19 20 21 22 23 24 25 26 27 28 29 30 31 32 33 34 35 36 37 38 39 40 41 42 43 44 45 46 47 48 49 50
000 ASUS42 KCHS 031928 RWRCHS REGIONAL WEATHER ROUNDUP NATIONAL WEATHER SERVICE CHARLESTON SC 300 PM EDT TUE MAY 03 2016 NOTE: "FAIR" INDICATES FEW OR NO CLOUDS BELOW 12,000 FEET WITH NO SIGNIFICANT WEATHER AND/OR OBSTRUCTIONS TO VISIBILITY. NOT ALL STATIONS ARE QUALITY CONTROLLED. USE DATA WITH CAUTION... ESPECIALLY DEWPOINT OBSERVATIONS. SCZ027-030-031-034>040-042>050-032000- ...SOUTHEAST SOUTH CAROLINA... CITY SKY/WX TMP DP RH WIND PRES REMARKS N CHARLESTON MOSUNNY 85 66 53 W10 29.80F WATERFRONT PRK N/A 83 70 64 W7 29.79F MOUNT PLEASANT FAIR 84 72 65 CALM 29.79F JOHNS ISLAND FAIR 82 73 74 S9 29.80F PINOPOLIS N/A 82 72 69 W7 29.73F MONCKS CORNER FAIR 82 59 44 W5 29.78F SUMMERVILLE MOCLDY 88 68 51 SW8 29.80F HX 91 BEAUFORT MCAS PTSUNNY 87 66 49 W14 29.82F BEAUFORT ARPT FAIR 86 63 45 SW12G21 29.81F HILTON HEAD IS MOSUNNY 84 64 51 W7G21 29.83F WALTERBORO MOCLDY 88 63 42 W10 29.80F ALLENDALE MOCLDY 84 64 51 VRB7 29.79F ...SOUTHERN MIDLANDS AND PEE DEE... CITY SKY/WX TMP DP RH WIND PRES REMARKS GEORGETOWN CLOUDY 81 72 74 E5 29.78F KINGSTREE FAIR 82 64 54 W8 29.78F ORANGEBURG PTSUNNY 84 64 50 W12G20 29.80F BARNWELL FAIR 88 66 48 SW12G17 29.80F HX 90 AIKEN FAIR 81 63 54 W10 29.84F MANNING FAIR 82 63 51 W6 29.78F COLUMBIA PTSUNNY 83 64 52 W12 29.78F SUMTER MOSUNNY 81 65 56 W7 29.77F FLORENCE MOSUNNY 83 65 54 SW8 29.78F MYRTLE BEACH PTSUNNY 75 63 64 S14 29.81F N MYRTLE BEACH TSTM 68 65 90 E9 29.79F VSB 1/2 $$ GAZ063-065-086>088-099>101-113>116-118-119-134>141-150-032000- ...SOUTHEAST GEORGIA... CITY SKY/WX TMP DP RH WIND PRES REMARKS SAVANNAH ARPT MOSUNNY 88 66 48 SW14G22 29.83F HX 90 HUNTER AAF PTSUNNY 84 70 63 W10 29.81F FORT STEWART MOSUNNY 85 66 51 SW13 29.81F STATESBORO MOSUNNY 87 70 55 SW14G20 29.82F HX 92 SYLVANIA PTCLDY 86 67 53 W9G16 29.82F CLAXTON FAIR 86 68 55 W12G23 29.83F ...CSRA...CENTRAL AND FAR SOUTHEAST GEORGIA... CITY SKY/WX TMP DP RH WIND PRES REMARKS THOMSON MOSUNNY 82 67 61 W9 29.86F AUGUSTA-BUSH TSTM 77 66 68 W6 29.80F AUGUSTA-DANIEL MOSUNNY 79 65 62 SW7 29.83F SWAINSBORO MOCLDY 84 63 48 W10G16 29.83F VIDALIA MOSUNNY 84 64 51 SW14 29.84F EASTMAN MOCLDY 83 67 58 NW9 29.87F HAZLEHURST FAIR 87 64 46 W5G20 29.84F ALMA PTSUNNY 83 69 62 S9 29.85F WAYCROSS MOSUNNY 85 66 53 W10G16 29.84F JESUP MOCLDY 86 72 62 W6 29.84F HX 92 BAXLEY CLOUDY 84 68 58 SW8 29.84F BRUNSWICK MOSUNNY 91 68 46 W10 29.84F HX 95 SAINT SIMONS PTSUNNY 85 68 56 W10 29.85F $$ SCZ027-028-034-036>038-045-046-048>050-GAZ119-141-032000- ...LAKE AND SUPPLEMENTAL COASTAL OBSERVATIONS... STATION/POSITION TIME TEMP WIND PRES WAVE SWELL AIR SEA DIR/SP/G HT/PER HT/PER/DIR (UTC) (F) (DEG/KT/KT) (MB) (FT/S) (FT/S/D) WINYAH BAY 1800 77 160/ 10 1009.0F LAKE MURRAY 1800 78 260/ 13/ 17 1008.8F ACE BASIN NERRS 1800 85 250/ 3 1010.0F FORT PULASKI 1900 82 75 270/ 10/ 12 1010.2F SAPELO ISLAND 1900 84 260/ 11 1010.0F $$ ANZ835-935-AMZ111-154-330-350-352-354-370-450-454-472-032000- ...C-MAN AND BUOY OBSERVATIONS... STATION/POSITION TIME TEMP WIND PRES WAVE SWELL AIR SEA DIR/SP/G HT/PER HT/PER/DIR (UTC) (F) (DEG/KT/KT) (MB) (FT/S) (FT/S/D) BUOY 41004 1850 74 75 220/ 14/ 16 1009.6F 5/ 6 3/ 8 BUOY 41008 NOT AVBL FOLLY BEACH CMAN 1900 76 180/ 11/ 12 1009.6F CAPERS NEARSHORE 1808 75 74 220/ 8/ 12 1009.7F FRIPP NEARSHORE 1908 76 74 200/ 10/ 14 1009.0F STATION/POSITION TIME TEMP WIND PRES WAVE SWELL AIR SEA DIR/SP/G HT/PER HT/PER/DIR (UTC) (F) (DEG/KT/KT) (MB) (FT/S) (FT/S/D) 5E ST. MARYS GA 1821 74 N/A 3/ 6 FRYING PAN BUOY 1900 74 73 170/ 8/ 10 1009.1F BUOY 41025 1850 70 71 210/ 16/ 19 1009.6F 4/ 7 3/180/ 7 CAPE LOOKOUT NC 1900 68 190/ 15/ 17 1009.0F BUOY 41002 1850 74 74 170/ 17/ 21 1013.4F 4/ 6 2/ 70/10 BUOY 41010 1820 77 78 220/ 14/ 16 1013.2F ST AUGUSTINE FL 1900 87 73 270/ 8/ 10 1011.8F $$

USA.gov is the U.S. government's official web portal to all federal, state and local government web resources and services.